Hourly Weather Aligarh

Today, 27 February, Saturday

Time Temperature Precipitation Wind Pressure Humidity
00:00 +24°C° 0 mm 1 mps 737 mmHg 33%
01:00 +24°C° 0 mm 1 mps 737 mmHg 34%
02:00 +23°C° 0 mm 2 mps 736 mmHg 35%
03:00 +23°C° 0 mm 2 mps 737 mmHg 35%
04:00 +21°C° 0 mm 2 mps 737 mmHg 36%
05:00 +21°C° 0 mm 2 mps 737 mmHg 37%
06:00 +22°C° 0 mm 3 mps 738 mmHg 35%
07:00 +25°C° 0 mm 3 mps 738 mmHg 34%
08:00 +26°C° 0 mm 3 mps 739 mmHg 33%
09:00 +29°C° 0 mm 4 mps 739 mmHg 28%
10:00 +33°C° 0 mm 5 mps 740 mmHg 23%
11:00 +36°C° 0 mm 6 mps 740 mmHg 17%
12:00 +38°C° 0 mm 6 mps 739 mmHg 16%
13:00 +38°C° 0 mm 6 mps 739 mmHg 15%
14:00 +39°C° 0 mm 7 mps 738 mmHg 13%
15:00 +37°C° 0 mm 5 mps 737 mmHg 15%
16:00 +36°C° 0 mm 4 mps 737 mmHg 17%
17:00 +32°C° 0 mm 2 mps 738 mmHg 19%
18:00 +30°C° 0 mm 2 mps 738 mmHg 21%
19:00 +29°C° 0 mm 2 mps 738 mmHg 23%
20:00 +27°C° 0 mm 1 mps 739 mmHg 24%
21:00 +26°C° 0 mm 1 mps 739 mmHg 25%
22:00 +25°C° 0 mm 1 mps 739 mmHg 26%
23:00 +25°C° 0 mm 1 mps 739 mmHg 27%

Tomorrow, 28 February, Sunday

Time Temperature Precipitation Wind Pressure Humidity
00:00 +24°C° 0 mm 1 mps 739 mmHg 28%
01:00 +24°C° 0 mm 1 mps 739 mmHg 29%
02:00 +23°C° 0 mm 1 mps 739 mmHg 29%
03:00 +23°C° 0 mm 2 mps 739 mmHg 30%
04:00 +23°C° 0 mm 2 mps 739 mmHg 30%
05:00 +21°C° 0 mm 2 mps 739 mmHg 31%
06:00 +24°C° 0 mm 2 mps 739 mmHg 29%
07:00 +25°C° 0 mm 2 mps 740 mmHg 27%
08:00 +26°C° 0 mm 3 mps 741 mmHg 25%
09:00 +29°C° 0 mm 2 mps 741 mmHg 22%
10:00 +32°C° 0 mm 2 mps 741 mmHg 18%
11:00 +35°C° 0 mm 2 mps 741 mmHg 15%
12:00 +36°C° 0 mm 3 mps 740 mmHg 14%
13:00 +36°C° 0 mm 4 mps 740 mmHg 13%
14:00 +37°C° 0 mm 5 mps 739 mmHg 12%
15:00 +36°C° 0 mm 4 mps 739 mmHg 13%
16:00 +35°C° 0 mm 3 mps 738 mmHg 14%
17:00 +34°C° 0 mm 3 mps 738 mmHg 15%
18:00 +30°C° 0 mm 2 mps 739 mmHg 16%
19:00 +27°C° 0 mm 2 mps 739 mmHg 17%
20:00 +24°C° 0 mm 2 mps 740 mmHg 18%
21:00 +24°C° 0 mm 2 mps 740 mmHg 18%
22:00 +23°C° 0 mm 2 mps 740 mmHg 17%
23:00 +21°C° 0 mm 2 mps 741 mmHg 16%

Day after tomorrow, 1 March, Monday

Time Temperature Precipitation Wind Pressure Humidity
00:00 +21°C° 0 mm 2 mps 740 mmHg 15%
01:00 +20°C° 0 mm 2 mps 740 mmHg 15%
02:00 +20°C° 0 mm 2 mps 740 mmHg 15%
03:00 +19°C° 0 mm 2 mps 740 mmHg 15%
04:00 +18°C° 0 mm 2 mps 740 mmHg 15%
05:00 +19°C° 0 mm 1 mps 740 mmHg 16%
06:00 +20°C° 0 mm 1 mps 741 mmHg 15%
07:00 +22°C° 0 mm 1 mps 742 mmHg 15%
08:00 +22°C° 0 mm 0 mps 742 mmHg 14%
09:00 +27°C° 0 mm 1 mps 742 mmHg 12%
10:00 +30°C° 0 mm 1 mps 743 mmHg 11%
11:00 +34°C° 0 mm 1 mps 743 mmHg 9%
12:00 +35°C° 0 mm 2 mps 742 mmHg 9%
13:00 +36°C° 0 mm 2 mps 741 mmHg 9%
14:00 +37°C° 0 mm 3 mps 741 mmHg 8%
15:00 +36°C° 0 mm 3 mps 740 mmHg 9%
16:00 +35°C° 0 mm 4 mps 740 mmHg 10%
17:00 +34°C° 0 mm 4 mps 740 mmHg 11%
18:00 +32°C° 0 mm 4 mps 740 mmHg 12%
19:00 +28°C° 0 mm 3 mps 741 mmHg 12%
20:00 +26°C° 0 mm 3 mps 742 mmHg 13%
21:00 +25°C° 0 mm 3 mps 742 mmHg 13%
22:00 +24°C° 0 mm 3 mps 742 mmHg 14%
23:00 +21°C° 0 mm 4 mps 742 mmHg 14%

2 March, Tuesday

Time Temperature Precipitation Wind Pressure Humidity
00:00 +20°C° 0 mm 4 mps 742 mmHg 15%
01:00 +19°C° 0 mm 3 mps 742 mmHg 16%
02:00 +18°C° 0 mm 3 mps 742 mmHg 17%
03:00 +18°C° 0 mm 3 mps 742 mmHg 17%
04:00 +17°C° 0 mm 3 mps 741 mmHg 18%
05:00 +17°C° 0 mm 3 mps 741 mmHg 18%
06:00 +18°C° 0 mm 3 mps 742 mmHg 17%
07:00 +20°C° 0 mm 3 mps 743 mmHg 16%
08:00 +22°C° 0 mm 4 mps 743 mmHg 15%
09:00 +26°C° 0 mm 4 mps 743 mmHg 13%
10:00 +30°C° 0 mm 5 mps 743 mmHg 11%
11:00 +34°C° 0 mm 5 mps 743 mmHg 9%
12:00 +35°C° 0 mm 5 mps 743 mmHg 8%
13:00 +36°C° 0 mm 5 mps 742 mmHg 8%
14:00 +36°C° 0 mm 5 mps 741 mmHg 7%
15:00 +35°C° 0 mm 5 mps 741 mmHg 8%
16:00 +34°C° 0 mm 4 mps 740 mmHg 9%
17:00 +33°C° 0 mm 3 mps 740 mmHg 10%
18:00 +29°C° 0 mm 3 mps 740 mmHg 11%
19:00 +27°C° 0 mm 3 mps 741 mmHg 13%
20:00 +24°C° 0 mm 3 mps 741 mmHg 14%
21:00 +22°C° 0 mm 4 mps 741 mmHg 15%
22:00 +21°C° 0 mm 4 mps 741 mmHg 16%
23:00 +20°C° 0 mm 4 mps 741 mmHg 17%

3 March, Wednesday

Time Temperature Precipitation Wind Pressure Humidity
00:00 +20°C° 0 mm 4 mps 741 mmHg 17%
01:00 +19°C° 0 mm 4 mps 740 mmHg 17%
02:00 +18°C° 0 mm 4 mps 740 mmHg 17%
03:00 +18°C° 0 mm 3 mps 740 mmHg 18%
04:00 +17°C° 0 mm 3 mps 740 mmHg 18%
05:00 +17°C° 0 mm 3 mps 740 mmHg 18%
06:00 +19°C° 0 mm 3 mps 740 mmHg 17%
07:00 +21°C° 0 mm 3 mps 741 mmHg 16%
08:00 +24°C° 0 mm 3 mps 742 mmHg 15%
09:00 +27°C° 0 mm 4 mps 742 mmHg 12%
10:00 +32°C° 0 mm 4 mps 742 mmHg 10%
11:00 +35°C° 0 mm 5 mps 742 mmHg 7%
12:00 +36°C° 0 mm 5 mps 741 mmHg 7%
13:00 +37°C° 0 mm 5 mps 740 mmHg 6%
14:00 +39°C° 0 mm 5 mps 739 mmHg 6%
15:00 +37°C° 0 mm 4 mps 739 mmHg 7%
16:00 +35°C° 0 mm 3 mps 739 mmHg 8%
17:00 +34°C° 0 mm 2 mps 739 mmHg 8%
18:00 +31°C° 0 mm 2 mps 739 mmHg 10%
19:00 +28°C° 0 mm 2 mps 740 mmHg 11%
20:00 +26°C° 0 mm 2 mps 740 mmHg 12%
21:00 +25°C° 0 mm 2 mps 740 mmHg 12%
22:00 +24°C° 0 mm 3 mps 740 mmHg 13%
23:00 +22°C° 0 mm 3 mps 740 mmHg 13%

4 March, Thursday

Time Temperature Precipitation Wind Pressure Humidity
00:00 +21°C° 0 mm 2 mps 740 mmHg 14%
01:00 +20°C° 0 mm 2 mps 740 mmHg 14%
02:00 +21°C° 0 mm 1 mps 739 mmHg 15%
03:00 +20°C° 0 mm 1 mps 739 mmHg 15%
04:00 +20°C° 0 mm 1 mps 739 mmHg 15%
05:00 +20°C° 0 mm 1 mps 739 mmHg 16%
06:00 +22°C° 0 mm 1 mps 740 mmHg 14%
07:00 +24°C° 0 mm 1 mps 741 mmHg 13%
08:00 +26°C° 0 mm 1 mps 742 mmHg 12%
09:00 +29°C° 0 mm 2 mps 742 mmHg 10%
10:00 +32°C° 0 mm 2 mps 742 mmHg 8%
11:00 +36°C° 0 mm 2 mps 742 mmHg 7%
12:00 +37°C° 0 mm 3 mps 741 mmHg 6%
13:00 +38°C° 0 mm 4 mps 740 mmHg 6%
14:00 +40°C° 0 mm 5 mps 739 mmHg 5%
15:00 +38°C° 0 mm 4 mps 739 mmHg 6%
16:00 +37°C° 0 mm 3 mps 738 mmHg 7%
17:00 +34°C° 0 mm 1 mps 738 mmHg 7%
18:00 +31°C° 0 mm 1 mps 739 mmHg 9%
19:00 +28°C° 0 mm 1 mps 739 mmHg 10%
20:00 +23°C° 0 mm 0 mps 739 mmHg 12%
21:00 +25°C° 0 mm 1 mps 740 mmHg 12%
22:00 +25°C° 0 mm 1 mps 740 mmHg 12%
23:00 +24°C° 0 mm 2 mps 740 mmHg 12%
Show more